Tracking 33723 objects as of 10-Apr-2026
HD Live streaming from Space Station
objects crossing your sky now

SITRO-AIS-56

Track SITRO-AIS-56 now!
10-day predictions
SITRO-AIS-56 is classified as:


NORAD ID: 59778
Int'l Code: 2024-092F
Perigee: 462.1 km
Apogee: 473.0 km
Inclination: 97.6 °
Period: 93.8 minutes
Semi major axis: 6838 km
RCS: Unknown
Launch date: May 16, 2024
Source: Commonwealth of Independent States (former USSR) (CIS)
Launch site: PLESETSK MISSILE AND SPACE COMPLEX (PKMTR)

Uplink (MHz):
Downlink (MHz): 401.215
Beacon (MHz):
Mode: 2k4 GMSK_USP
Call sign: SC2344
Status: Active

Your satellite tracking list
Your tracking list is empty




NASA's NSSDC Master Catalog

Two Line Element Set (TLE):
1 59778U 24092F   26100.28147422  .00021469  00000-0  62958-3 0  9997
2 59778  97.6465 230.9415 0007935  38.0830 322.0972 15.35177194105346
Source of the keplerian elements: AFSPC